Meteo Giornale » Osservazioni meteo Stati Uniti (USA) » Dimmit
ore: 21:55 - Osservazioni Meteo Dimmit
Lat. 28° 13' N Lon. 100° 1' W Alt. 236 metri s.l.m.
34 °C
Sereno
Temp. 24 Ore
26 °C
40 °C
Est/Sud-Est
27.8 Km/h
Dew point 22 °C
Umidità 49 %
Visibilità 10 Km
Il sole sorge alle ore 07:18
Il sole tramonta alle ore 20:02
| Data e Ora | Cielo e Fenomeni | T °C | DP °C | Um. % | Pres. hPa | Vis. km | Vento km/h | |
|---|---|---|---|---|---|---|---|---|
| Oggi h: 21:55 | Sereno | 34 | 22 | 49 | 1012 | 10 | E/SE 27.8 | |
| Oggi h: 21:35 | Foschia | 34 | 21 | 46 | 1012 | 6 | E/SE 33.3 | |
| Oggi h: 21:15 | Foschia | 35 | 16 | 32 | 1012 | 2 | E/SE 14.8 | |
| Oggi h: 20:55 | Foschia | 36 | 15 | 28 | 1011 | 5 | E/SE 14.8 | |
| Oggi h: 20:35 | Foschia | 36 | 15 | 28 | 1011 | 2 | E/SE 11.1 | |
| Oggi h: 20:15 | Foschia | 36 | 15 | 28 | 1011 | 2 | E/SE 14.8 | |
| Oggi h: 19:55 | Foschia | 37 | 15 | 27 | 1011 | 2 | E/SE 13 | |
| Oggi h: 19:35 | Sereno | 38 | 15 | 25 | 1011 | 13 | E/SE 14.8 | |
| Oggi h: 19:15 | Foschia | 38 | 15 | 25 | 1011 | 2 | E/SE 20.3 | |
| Oggi h: 18:55 | Foschia | 39 | 16 | 26 | 1011 | 5 | E/SE 18.5 | |
| Oggi h: 18:35 | Foschia | 39 | 16 | 26 | 1010 | 2 | E/SE 20.3 | |
| Oggi h: 18:15 | Foschia | 39 | 16 | 26 | 1011 | 2 | S/SE 18.5 | |
| Oggi h: 17:55 | Foschia | 39 | 16 | 26 | 1011 | 2 | E/SE 18.5 | |
| Oggi h: 17:35 | Foschia | 40 | 16 | 24 | 1010 | 5 | E 18.5 | |
| Oggi h: 17:15 | Foschia | 40 | 16 | 24 | 1011 | 2 | SE 20.3 | |
| Oggi h: 16:55 | Foschia | 40 | 16 | 24 | 1011 | 2 | S/SE 16.7 | |
| Oggi h: 16:35 | Foschia | 40 | 17 | 26 | 1011 | 2 | SE 22.2 | |
| Oggi h: 16:15 | Foschia | 39 | 17 | 27 | 1012 | 5 | SE 24 | |
| Oggi h: 15:55 | Foschia | 39 | 17 | 27 | 1012 | 5 | E 16.7 | |
| Oggi h: 15:35 | Foschia | 40 | 18 | 27 | 1012 | 2 | E/SE 18.5 | |
| Oggi h: 15:15 | Foschia | 39 | 18 | 29 | 1013 | 2 | E/SE 16.7 | |
| Oggi h: 14:55 | Foschia | 39 | 18 | 29 | 1013 | 5 | E/SE 11.1 | |
| Oggi h: 14:35 | Foschia | 39 | 19 | 31 | 1013 | 2 | E 16.7 | |
| Oggi h: 14:15 | Foschia | 38 | 19 | 33 | 1014 | 5 | E/SE 18.5 | |
| Oggi h: 13:55 | Foschia | 37 | 20 | 37 | 1014 | 2 | E 14.8 | |
| Oggi h: 13:35 | Foschia | 37 | 21 | 39 | 1015 | 2 | N 9.3 | |
| Oggi h: 13:15 | Foschia | 36 | 22 | 44 | 1015 | 2 | E/NE 13 | |
| Oggi h: 12:55 | Foschia | 35 | 23 | 49 | 1015 | 5 | E 9.3 | |
| Oggi h: 12:35 | Foschia | 35 | 23 | 49 | 1015 | 2 | N 9.3 | |
| Oggi h: 12:15 | Foschia | 34 | 23 | 52 | 1015 | 2 | N 7.4 | |
| Oggi h: 11:55 | Foschia | 33 | 23 | 55 | 1015 | 3 | N 9.3 | |
| Oggi h: 11:35 | Foschia | 33 | 24 | 59 | 1016 | 2 | E/SE 11.1 | |
| Oggi h: 11:15 | Foschia | 32 | 24 | 62 | 1016 | 2 | SE 13 | |
| Oggi h: 10:55 | Sereno | 32 | 24 | 62 | 1016 | 10 | S/SE 11.1 | |
| Oggi h: 10:35 | Foschia | 31 | 24 | 66 | 1016 | 5 | N 9.3 | |
| Oggi h: 10:15 | Foschia | 30 | 24 | 70 | 1016 | 2 | SE 11.1 | |
| Oggi h: 09:55 | Foschia | 30 | 24 | 70 | 1016 | 5 | S 13 | |
| Oggi h: 09:35 | Foschia | 29 | 24 | 74 | 1016 | 2 | S/SE 13 | |
| Oggi h: 09:15 | Foschia | 28 | 24 | 78 | 1016 | 2 | SE 13 | |
| Oggi h: 08:55 | Foschia | 28 | 24 | 78 | 1016 | 0 | E 14.8 | |
| Oggi h: 08:35 | Foschia | 27 | 24 | 83 | 1015 | 2 | E/SE 13 | |
| Oggi h: 08:15 | Foschia | 27 | 23 | 78 | 1015 | 2 | E/SE 11.1 | |
| Oggi h: 07:55 | Foschia | 26 | 23 | 83 | 1015 | 5 | E 9.3 | |
| Oggi h: 07:35 | Poco Nuvoloso | 26 | 23 | 83 | 1015 | 10 | E 7.4 | |
| Oggi h: 07:15 | Foschia | 26 | 23 | 83 | 1015 | 2 | E 9.3 | |
| Oggi h: 06:55 | Foschia | 26 | 23 | 83 | 1014 | 2 | E 7.4 | |
| Oggi h: 06:35 | Foschia | 26 | 23 | 83 | 1014 | 2 | E/SE 9.3 | |
| Oggi h: 06:15 | Foschia | 26 | 22 | 78 | 1014 | 10 | E/SE 11.1 | |
| Oggi h: 05:55 | Foschia | 27 | 22 | 74 | 1014 | 2 | SE 11.1 | |
| Oggi h: 05:35 | Foschia | 27 | 22 | 74 | 1014 | 2 | E/SE 11.1 | |
| Oggi h: 05:15 | Foschia | 27 | 23 | 78 | 1014 | 2 | E/SE 13 | |
| Oggi h: 04:55 | Foschia | 27 | 23 | 78 | 1014 | 2 | SE 9.3 | |
| Oggi h: 04:35 | Sereno | 27 | 23 | 78 | 1014 | 10 | S/SE 11.1 | |
| Oggi h: 04:15 | Foschia | 28 | 23 | 74 | 1014 | 10 | SE 14.8 | |
| Oggi h: 03:55 | Sereno | 28 | 23 | 74 | 1014 | 10 | E/SE 16.7 | |
| Oggi h: 03:35 | Foschia | 28 | 23 | 74 | 1014 | 2 | SE 14.8 | |
| Oggi h: 03:15 | Foschia | 28 | 23 | 74 | 1014 | 5 | SE 18.5 | |
| Oggi h: 02:55 | Foschia | 28 | 23 | 74 | 1014 | 3 | SE 22.2 | |
| Oggi h: 02:35 | Molto Nuvoloso | 29 | 23 | 70 | 1014 | 10 | E/SE 20.3 | |
| Oggi h: 02:15 | Foschia | 29 | 23 | 70 | 1014 | 5 | SE 18.5 | |
| Oggi h: 01:55 | Sereno | 29 | 23 | 70 | 1015 | 10 | SE 22.2 | |
| Oggi h: 01:35 | Sereno | 29 | 23 | 70 | 1015 | 10 | SE 29.6 | |
| Oggi h: 01:15 | Sereno | 29 | 23 | 70 | 1015 | 10 | SE 27.8 | |
| Oggi h: 00:55 | Foschia | 30 | 23 | 66 | 1015 | 5 | SE 27.8 | |
| Oggi h: 00:35 | Foschia | 30 | 23 | 66 | 1014 | 2 | SE 25.9 | |
| Oggi h: 00:15 | Foschia | 30 | 23 | 66 | 1014 | 2 | SE 25.9 | |
| Ieri h: 23:55 | Foschia | 31 | 23 | 62 | 1014 | 5 | E/SE 22.2 | |
| Ieri h: 23:35 | Foschia | 31 | 23 | 62 | 1014 | 3 | SE 29.6 | |
| Ieri h: 23:15 | Foschia | 32 | 23 | 59 | 1014 | 2 | SE 24 | |
| Ieri h: 22:55 | Foschia | 32 | 23 | 59 | 1014 | 5 | SE 24 | |
| Ieri h: 22:35 | Sereno | 33 | 23 | 55 | 1013 | 10 | E/SE 22.2 | |



